カタログに戻る

STARLINK-32308

運用中通信VLEO
NORAD 61663·PAYLOAD·🇺🇸 United States

打ち上げ Oct 26, 2024 から Cape Canaveral Space Force Station

Loading…

次のパス (今後24時間)

TLE

最新Source: CelesTrak SupGP

元期: Sep 15, 2026, 02:41 UTC

1 61663C 24193C   26258.11229167  .00010448  00000+0  30862-3 0  2589
2 61663  53.1587 286.8621 0001266  93.0720  87.1003 15.34392264    11

AllMySatでSTARLINK-32308をリアルタイム追跡

Download on the App Store